Location: Ergnies
(50.0854°N, 2.0375°E)
Time: 07:06:51
(UTC+00:00)

Gblst 52 Del rocket - Pass Details

Date: 14 January 2026
Orbit: 805 x 1364 km, 51.5° (Epoch: 9 February)

Event Time Altitude Azimuth Distance (km) Brightness Sun altitude
Exits shadow 04:50:15 78° 4° (N) 828 4.0 -27.4°
Maximum altitude 04:50:16 78° 5° (N) 828 4.0 -27.4°
Drops below altitude 10° 04:55:47 10° 93° (E) 2,403 7.6 -26.5°
Sets 04:58:17 0° 95° (E) 3,364 8.7 -26.1°
